Location: Berlin
(42.3812°N, 71.6370°W)
Time: 22:35:06
(UTC+00:00)

Sich 1 Rocket - Pass Details

Date: 15 November 2025
Orbit: 611 x 646 km, 82.5° (Epoch: 09 December)

Event Time Altitude Azimuth Distance (km) Brightness Sun altitude
Rises 11:00:12 0° 347° (NNW) 2,959 6.7 -7.3°
Reaches altitude 10° 11:02:30 10° 343° (NNW) 2,040 5.9 -6.9°
Maximum altitude 11:06:55 55° 267° (W) 769 3.7 -6.1°
Drops below altitude 10° 11:11:15 10° 189° (S) 2,004 6.3 -5.4°
Sets 11:13:30 0° 185° (S) 2,901 7.2 -5.0°
